CW4740 Weather Reports


Display with metric or nautical units.
time (UTC)temp
F
wind
direction
speed
MPH
gust
MPH
rain 1hr
in
rain 24hr
in
rain mn
in
humidity
%
barometer
mb
20260502185722 93 262 8.0 19.0 0.00 0.00 0.00 52 1010.8
20260502185640 93 262 8.0 19.0 0.00 0.00 0.00 52 1010.8
20260502185137 93 272 9.0 19.0 0.00 0.00 0.00 51 1010.9
20260502184734 93 205 9.0 19.0 0.00 0.00 0.00 52 1011.0
20260502184245 93 268 8.0 17.0 0.00 0.00 0.00 51 1011.0
20260502183638 93 238 10.0 18.0 0.00 0.00 0.00 51 1011.1
20260502183135 93 250 9.0 18.0 0.00 0.00 0.00 53 1011.0
20260502182638 92 253 7.0 15.0 0.00 0.00 0.00 55 1011.1
20260502182232 91 260 5.0 12.0 0.00 0.00 0.00 59 1011.1
20260502182129 91 260 5.0 12.0 0.00 0.00 0.00 59 1011.1
20260502181745 90 234 6.0 11.0 0.00 0.00 0.00 64 1011.3
20260502181239 89 161 2.0 11.0 0.00 0.00 0.00 73 1011.3
20260502180731 88 162 4.0 13.0 0.00 0.00 0.00 69 1011.4
20260502180224 88 117 8.0 13.0 0.00 0.00 0.00 76 1011.4
20260502170220 87 134 7.0 15.0 0.00 0.00 0.00 75 1012.0
20260502164206 86 162 8.0 12.0 0.00 0.00 0.00 77 1012.0
20260502163704 86 153 6.0 14.0 0.00 0.00 0.00 78 1011.9
20260502163140 86 161 7.0 16.0 0.00 0.00 0.00 76 1012.1
20260502162637 87 163 8.0 15.0 0.00 0.00 0.00 76 1012.1
20260502162135 87 134 5.0 15.0 0.00 0.00 0.00 77 1012.2
20260502161653 87 128 6.0 16.0 0.00 0.00 0.00 77 1012.1
20260502161228 87 108 8.0 16.0 0.00 0.00 0.00 77 1012.2
20260502161146 87 108 8.0 16.0 0.00 0.00 0.00 77 1012.2
20260502160702 87 146 9.0 17.0 0.00 0.00 0.00 76 1012.2
20260502160219 87 129 9.0 16.0 0.00 0.00 0.00 76 1012.3
20260502152144 88 221 2.0 10.0 0.00 0.00 0.00 73 1012.6
20260502151719 87 196 3.0 10.0 0.00 0.00 0.00 67 1012.5
20260502151213 87 126 3.0 13.0 0.00 0.00 0.00 73 1012.6
20260502150707 87 182 6.0 13.0 0.00 0.00 0.00 68 1012.5
20260502150143 87 182 6.0 11.0 0.00 0.00 0.00 75 1012.5
20260502130643 82 200 3.0 7.0 0.00 0.00 0.00 83 1012.2
20260502130142 82 148 3.0 7.0 0.00 0.00 0.00 83 1012.3
20260502123657 80 136 3.0 6.0 0.00 0.00 0.00 86 1012.3
20260502123131 80 169 3.0 6.0 0.00 0.00 0.00 86 1012.3
20260502122707 79 202 1.0 6.0 0.00 0.00 0.00 87 1012.3
20260502122203 79 157 2.0 6.0 0.00 0.00 0.00 87 1012.3
20260502121639 78 169 2.0 5.0 0.00 0.00 0.00 88 1012.3
20260502121136 78 167 3.0 5.0 0.00 0.00 0.00 88 1012.2
20260502120734 77 246 1.0 4.0 0.00 0.00 0.00 89 1012.3
20260502120651 77 246 1.0 4.0 0.00 0.00 0.00 89 1012.3
20260502120129 77 252 0.0 0.0 0.00 0.00 0.00 89 1012.4
20260502115638 76 252 0.0 0.0 0.00 0.00 0.00 90 1012.4
20260502115156 76 252 0.0 0.0 0.00 0.00 0.00 90 1012.4
20260502114633 75 252 0.0 0.0 0.00 0.00 0.00 90 1012.5
20260502114131 75 252 0.0 0.0 0.00 0.00 0.00 90 1012.4
20260502113649 75 252 0.0 0.0 0.00 0.00 0.00 91 1012.3
20260502113206 74 252 0.0 0.0 0.00 0.00 0.00 91 1012.4
20260502112643 74 252 0.0 0.0 0.00 0.00 0.00 91 1012.5
20260502112221 74 252 0.0 0.0 0.00 0.00 0.00 91 1012.4
20260502111657 74 252 0.0 0.0 0.00 0.00 0.00 91 1012.5
20260502111134 74 252 0.0 0.0 0.00 0.00 0.00 91 1012.5
20260502110651 74 252 0.0 0.0 0.00 0.00 0.00 91 1012.5
20260502110249 74 252 0.0 0.0 0.00 0.00 0.00 91 1012.5
20260502110146 74 252 0.0 0.0 0.00 0.00 0.00 91 1012.5
20260502105636 73 252 0.0 0.0 0.00 0.00 0.00 91 1012.5
20260502105154 73 252 0.0 0.0 0.00 0.00 0.00 91 1012.5
20260502104631 73 252 0.0 0.0 0.00 0.00 0.00 91 1012.4
20260502104129 73 252 0.0 0.0 0.00 0.00 0.00 91 1012.2
20260502103726 73 252 0.0 0.0 0.00 0.00 0.00 91 1012.1
20260502103201 73 252 0.0 0.0 0.00 0.00 0.00 91 1012.1
20260502102638 73 252 0.0 0.0 0.00 0.00 0.00 91 1012.2
20260502102135 73 252 0.0 0.0 0.00 0.00 0.00 91 1012.2
20260502101634 73 252 0.0 0.0 0.00 0.00 0.00 91 1012.3
20260502101152 73 252 0.0 0.0 0.00 0.00 0.00 91 1012.2
20260502100628 73 252 0.0 0.0 0.00 0.00 0.00 91 1012.2
20260502100207 73 252 0.0 0.0 0.00 0.00 0.00 91 1012.3
20260502091200 74 252 0.0 0.0 0.00 0.00 0.00 89 1012.4
20260502090635 74 252 0.0 0.0 0.00 0.00 0.00 89 1012.3
20260502090154 74 252 0.0 0.0 0.00 0.00 0.00 89 1012.3
20260502071215 75 264 3.0 6.0 0.00 0.00 0.00 84 1012.0
20260502070631 75 259 3.0 7.0 0.00 0.00 0.00 84 1012.1
20260502070128 75 261 2.0 6.0 0.00 0.00 0.00 84 1012.2
20260502065717 75 261 0.0 7.0 0.00 0.00 0.00 84 1012.2
20260502065233 75 254 3.0 7.0 0.00 0.00 0.00 84 1012.5
20260502064627 75 257 2.0 6.0 0.00 0.00 0.00 83 1012.4
20260502064146 76 232 1.0 4.0 0.00 0.00 0.00 83 1012.3
20260502063641 76 227 0.0 0.0 0.00 0.00 0.00 82 1012.3
20260502063156 76 227 0.0 0.0 0.00 0.00 0.00 82 1012.5
20260502062632 76 227 0.0 0.0 0.00 0.00 0.00 82 1012.5
20260502062150 76 227 0.0 3.0 0.00 0.00 0.00 82 1012.6
20260502061223 76 227 0.0 2.0 0.00 0.00 0.00 81 1012.7
20260502061140 76 227 0.0 2.0 0.00 0.00 0.00 81 1012.7
20260502060714 76 227 0.0 2.0 0.00 0.00 0.00 81 1012.7
20260502060151 76 227 1.0 2.0 0.00 0.00 0.00 81 1012.6
20260502055639 76 227 0.0 1.0 0.00 0.00 0.00 81 1012.6
20260502055141 76 227 0.0 0.0 0.00 0.00 0.00 81 1012.6
20260502054638 76 225 0.0 0.0 0.00 0.00 0.00 81 1012.6
20260502054211 77 225 0.0 0.0 0.00 0.00 0.00 81 1012.7
20260502053747 77 225 0.0 0.0 0.00 0.00 0.00 80 1012.7
20260502053705 77 225 0.0 0.0 0.00 0.00 0.00 80 1012.7
20260502053202 77 225 0.0 0.0 0.00 0.00 0.00 80 1012.7
20260502052719 77 225 0.0 0.0 0.00 0.00 0.00 80 1012.5
20260502052134 77 225 0.0 1.0 0.00 0.00 0.00 80 1012.7
20260502051652 77 225 0.0 5.0 0.00 0.00 0.00 81 1012.6
20260502051148 77 225 1.0 5.0 0.00 0.00 0.00 81 1012.6
20260502050705 78 238 1.0 5.0 0.00 0.00 0.00 82 1012.6
20260502050141 78 223 1.0 5.0 0.00 0.00 0.00 83 1012.6
20260502045649 78 248 1.0 8.0 0.00 0.00 0.00 85 1012.7
20260502045205 78 253 3.0 8.0 0.00 0.00 0.00 85 1012.8
20260502044642 79 244 3.0 5.0 0.00 0.00 0.00 86 1012.8
20260502044139 79 220 2.0 5.0 0.00 0.00 0.00 86 1012.8
20260502043635 79 227 1.0 5.0 0.00 0.00 0.00 85 1012.9
20260502043151 79 164 3.0 8.0 0.00 0.00 0.00 85 1012.8
20260502042704 79 227 3.0 8.0 0.00 0.00 0.00 85 1012.8
20260502042159 79 209 1.0 5.0 0.00 0.00 0.00 85 1012.8
20260502041655 79 195 2.0 8.0 0.00 0.00 0.00 85 1012.8
20260502041132 79 227 2.0 8.0 0.00 0.00 0.00 84 1012.8
20260502040629 79 47 3.0 9.0 0.00 0.00 0.00 84 1012.7
20260502040208 79 188 3.0 8.0 0.00 0.00 0.00 84 1012.8
20260502035636 79 254 2.0 9.0 0.00 0.00 0.00 84 1012.9
20260502035138 79 159 3.0 9.0 0.00 0.00 0.00 84 1013.0
20260502034635 79 184 3.0 7.0 0.00 0.00 0.00 84 1012.9
20260502034133 79 143 1.0 9.0 0.00 0.00 0.00 83 1012.9
20260502033633 79 200 2.0 9.0 0.00 0.00 0.00 83 1013.0
20260502033131 80 186 1.0 8.0 0.00 0.00 0.00 83 1012.8
20260502032707 80 146 3.0 8.0 0.00 0.00 0.00 83 1012.8
20260502032205 80 149 3.0 9.0 0.00 0.00 0.00 82 1012.7
20260502031721 80 149 4.0 9.0 0.00 0.00 0.00 82 1012.9
20260502031217 80 207 4.0 7.0 0.00 0.00 0.00 82 1012.8
20260502030653 80 177 2.0 8.0 0.00 0.00 0.00 82 1012.7
20260502030150 80 194 4.0 10.0 0.00 0.00 0.00 81 1012.7
20260502025637 80 214 2.0 8.0 0.00 0.00 0.00 81 1012.7
20260502025155 80 165 4.0 9.0 0.00 0.00 0.00 81 1012.7
20260502024634 80 169 5.0 9.0 0.00 0.00 0.00 81 1012.8
20260502024249 80 168 3.0 10.0 0.00 0.00 0.00 81 1012.8
20260502023704 80 184 3.0 10.0 0.00 0.00 0.00 81 1012.8
20260502023221 80 154 2.0 10.0 0.00 0.00 0.00 81 1012.7
20260502022636 80 148 5.0 10.0 0.00 0.00 0.00 81 1012.5
20260502022133 80 136 4.0 11.0 0.00 0.00 0.00 80 1012.4
20260502021650 80 165 5.0 9.0 0.00 0.00 0.00 80 1012.4
20260502021246 80 148 4.0 10.0 0.00 0.00 0.00 79 1012.4
20260502020722 80 155 5.0 9.0 0.00 0.00 0.00 78 1012.4
20260502020239 80 157 4.0 8.0 0.00 0.00 0.00 79 1012.4
20260502020135 80 157 4.0 8.0 0.00 0.00 0.00 79 1012.4
20260502015645 80 165 3.0 8.0 0.00 0.00 0.00 79 1012.4
20260502015203 80 173 4.0 10.0 0.00 0.00 0.00 79 1012.4
20260502014700 80 208 4.0 10.0 0.00 0.00 0.00 79 1012.4
20260502014137 80 148 4.0 11.0 0.00 0.00 0.00 79 1012.4
20260502013635 80 122 5.0 11.0 0.00 0.00 0.00 79 1012.4
20260502013152 80 155 5.0 9.0 0.00 0.00 0.00 79 1012.4
20260502012708 80 148 5.0 14.0 0.00 0.00 0.00 79 1012.3
20260502012145 80 159 6.0 14.0 0.00 0.00 0.00 79 1012.2
20260502011643 80 128 4.0 11.0 0.00 0.00 0.00 78 1012.2
20260502011141 80 147 3.0 10.0 0.00 0.00 0.00 78 1012.2
20260502010639 80 151 3.0 10.0 0.00 0.00 0.00 78 1012.1
20260502010157 80 184 6.0 12.0 0.00 0.00 0.00 78 1012.0
20260502005643 80 128 5.0 12.0 0.00 0.00 0.00 78 1012.0
20260502005201 80 118 5.0 11.0 0.00 0.00 0.00 78 1012.0
20260502004717 80 156 5.0 10.0 0.00 0.00 0.00 78 1011.9
20260502004212 80 184 5.0 15.0 0.00 0.00 0.00 78 1011.9
20260502003708 80 132 6.0 15.0 0.00 0.00 0.00 78 1011.8
20260502003205 81 125 2.0 9.0 0.00 0.00 0.00 78 1011.7
20260502002742 81 164 3.0 10.0 0.00 0.00 0.00 78 1011.6
20260502002155 81 184 4.0 10.0 0.00 0.00 0.00 78 1011.6
20260502001651 81 143 3.0 14.0 0.00 0.00 0.00 78 1011.7
20260502001147 81 124 4.0 14.0 0.00 0.00 0.00 78 1011.6
20260502000724 81 172 4.0 10.0 0.00 0.00 0.00 78 1011.5
20260502000139 81 161 4.0 14.0 0.00 0.00 0.00 78 1011.5
20260501235646 81 151 6.0 14.0 0.00 0.00 0.00 78 1011.4
20260501235224 81 130 5.0 14.0 0.00 0.00 0.00 78 1011.2
20260501234719 81 129 6.0 12.0 0.00 0.00 0.00 78 1011.2
20260501234154 81 166 6.0 12.0 0.00 0.00 0.00 78 1011.2
20260501233747 81 89 4.0 12.0 0.00 0.00 0.00 77 1011.2
20260501233644 81 89 4.0 12.0 0.00 0.00 0.00 77 1011.2
20260501233142 81 138 7.0 14.0 0.00 0.00 0.00 77 1011.1
20260501232721 81 67 4.0 12.0 0.00 0.00 0.00 77 1011.2
20260501232136 81 142 5.0 14.0 0.00 0.00 0.00 77 1011.2
20260501231731 82 165 6.0 14.0 0.00 0.00 0.00 77 1011.1
20260501231649 82 165 6.0 14.0 0.00 0.00 0.00 77 1011.1
20260501231223 82 126 7.0 11.0 0.00 0.00 0.00 77 1011.1
20260501230637 82 144 5.0 13.0 0.00 0.00 0.00 77 1011.0
20260501230154 82 154 6.0 13.0 0.00 0.00 0.00 76 1011.0
20260501225722 82 169 6.0 13.0 0.00 0.00 0.00 75 1010.9
20260501225136 82 160 4.0 15.0 0.00 0.00 0.00 75 1010.8
20260501224653 82 161 7.0 12.0 0.00 0.00 0.00 74 1010.8
20260501224150 83 189 7.0 14.0 0.00 0.00 0.00 74 1010.8
20260501223645 83 179 4.0 14.0 0.00 0.00 0.00 74 1010.7
20260501223202 83 146 4.0 14.0 0.00 0.00 0.00 75 1010.7
20260501222639 82 132 7.0 12.0 0.00 0.00 0.00 75 1010.7
20260501222236 83 139 8.0 14.0 0.00 0.00 0.00 74 1010.7
20260501221651 83 142 8.0 16.0 0.00 0.00 0.00 73 1010.8
20260501221206 83 153 9.0 16.0 0.00 0.00 0.00 73 1010.9
20260501220701 83 158 4.0 12.0 0.00 0.00 0.00 74 1010.8
20260501220217 83 156 7.0 14.0 0.00 0.00 0.00 73 1010.8
20260501215721 83 129 10.0 14.0 0.00 0.00 0.00 73 1011.0
20260501215136 83 157 6.0 14.0 0.00 0.00 0.00 74 1010.8
20260501214634 83 186 5.0 12.0 0.00 0.00 0.00 75 1010.9
20260501214132 83 165 6.0 12.0 0.00 0.00 0.00 75 1010.9
20260501213630 83 140 6.0 14.0 0.00 0.00 0.00 75 1010.9
20260501213147 83 111 7.0 14.0 0.00 0.00 0.00 75 1011.0
20260501212702 83 161 6.0 18.0 0.00 0.00 0.00 74 1011.0
20260501212159 83 163 8.0 18.0 0.00 0.00 0.00 74 1011.0
20260501211715 84 175 7.0 15.0 0.00 0.00 0.00 74 1011.0
20260501211231 84 128 8.0 15.0 0.00 0.00 0.00 73 1010.9
20260501211149 84 128 8.0 15.0 0.00 0.00 0.00 73 1010.9
20260501210722 84 133 6.0 17.0 0.00 0.00 0.00 72 1011.0
20260501210158 84 148 8.0 17.0 0.00 0.00 0.00 72 1011.1
20260501205706 84 149 8.0 14.0 0.00 0.00 0.00 71 1011.1
20260501205143 84 185 8.0 14.0 0.00 0.00 0.00 70 1011.1
20260501204640 85 117 7.0 14.0 0.00 0.00 0.00 70 1011.2
20260501204141 85 124 7.0 13.0 0.00 0.00 0.00 71 1011.2
20260501203637 85 112 6.0 13.0 0.00 0.00 0.00 68 1011.2
20260501203133 85 137 5.0 15.0 0.00 0.00 0.00 68 1011.2
20260501202630 85 152 7.0 15.0 0.00 0.00 0.00 67 1011.2
20260501202147 85 160 6.0 15.0 0.00 0.00 0.00 69 1011.2
20260501201723 85 107 7.0 15.0 0.00 0.00 0.00 69 1011.3
20260501201157 85 120 4.0 12.0 0.00 0.00 0.00 69 1011.3
20260501200633 85 144 6.0 12.0 0.00 0.00 0.00 69 1011.5
20260501200210 85 155 6.0 12.0 0.00 0.00 0.00 69 1011.5
20260501195656 85 127 5.0 10.0 0.00 0.00 0.00 69 1011.6
20260501195213 86 136 7.0 12.0 0.00 0.00 0.00 68 1011.8
20260501194643 86 118 6.0 14.0 0.00 0.00 0.00 66 1011.8
20260501194241 86 117 4.0 14.0 0.00 0.00 0.00 67 1011.9
20260501193635 85 135 6.0 14.0 0.00 0.00 0.00 68 1011.9
20260501193153 86 132 7.0 14.0 0.00 0.00 0.00 66 1012.0
20260501192649 86 155 7.0 14.0 0.00 0.00 0.00 66 1012.1
20260501192245 85 136 8.0 14.0 0.00 0.00 0.00 67 1012.3
20260501192203 85 136 8.0 14.0 0.00 0.00 0.00 67 1012.3
20260501191700 85 130 7.0 14.0 0.00 0.00 0.00 67 1012.5
20260501191158 85 116 7.0 14.0 0.00 0.00 0.00 66 1012.5
20260501190655 85 138 7.0 16.0 0.00 0.00 0.00 67 1012.6
20260501190134 85 131 7.0 14.0 0.00 0.00 0.00 67 1012.5